GW3806 Weather Reports


Display with metric or nautical units.
time (UTC)temp
F
wind
direction
speed
MPH
gust
MPH
rain 1hr
in
rain 24hr
in
rain mn
in
humidity
%
barometer
mb
20260508175513 61 270 0.0 6.0 0.00 0.00 0.00 49 1015.6
20260508175011 60 294 1.0 13.0 0.00 0.00 0.00 49 1015.9
20260508174508 62 338 2.0 6.0 0.00 0.00 0.00 48 1015.9
20260508174005 60 26 1.0 5.0 0.00 0.00 0.00 48 1015.9
20260508173502 61 154 0.0 4.0 0.00 0.00 0.00 46 1015.9
20260508172958 60 229 2.0 5.0 0.00 0.00 0.00 43 1015.9
20260508172455 61 283 4.0 8.0 0.00 0.00 0.00 50 1015.9
20260508171952 61 245 5.0 7.0 0.00 0.00 0.00 49 1015.9
20260508171449 60 226 5.0 9.0 0.00 0.00 0.00 46 1015.9
20260508170945 60 284 3.0 8.0 0.00 0.00 0.00 44 1015.7
20260508170442 60 192 1.0 5.0 0.00 0.00 0.00 46 1015.6
20260508165939 59 273 3.0 7.0 0.00 0.00 0.00 44 1015.7
20260508165437 61 270 2.0 6.0 0.00 0.00 0.00 48 1015.9
20260508164932 60 231 4.0 5.0 0.00 0.00 0.00 45 1015.9
20260508164430 59 160 3.0 6.0 0.00 0.00 0.00 44 1015.9
20260508163927 60 245 2.0 4.0 0.00 0.00 0.00 43 1015.9
20260508163425 58 330 2.0 3.0 0.00 0.00 0.00 41 1015.9
20260508162920 59 303 2.0 3.0 0.00 0.00 0.00 48 1015.7
20260508162418 59 233 4.0 5.0 0.00 0.00 0.00 46 1015.7
20260508161914 58 300 3.0 7.0 0.00 0.00 0.00 48 1015.6
20260508161412 59 292 4.0 4.0 0.00 0.00 0.00 50 1015.7
20260508160909 59 278 0.0 3.0 0.00 0.00 0.00 53 1015.7
20260508160408 57 221 2.0 5.0 0.00 0.00 0.00 49 1015.6
20260508155903 57 270 4.0 7.0 0.00 0.00 0.00 54 1015.5
20260508155401 58 270 3.0 3.0 0.00 0.00 0.00 50 1015.6
20260508154857 57 348 0.0 4.0 0.00 0.00 0.00 50 1015.7
20260508154355 56 254 0.0 5.0 0.00 0.00 0.00 50 1015.5
20260508153851 55 307 2.0 4.0 0.00 0.00 0.00 52 1015.5
20260508153349 57 337 0.0 5.0 0.00 0.00 0.00 54 1015.5
20260508152845 56 267 3.0 4.0 0.00 0.00 0.00 52 1015.5
20260508152342 56 233 0.0 4.0 0.00 0.00 0.00 50 1015.5
20260508151838 56 315 2.0 3.0 0.00 0.00 0.00 53 1015.4
20260508151335 56 252 5.0 5.0 0.00 0.00 0.00 53 1015.4
20260508150831 56 296 3.0 4.0 0.00 0.00 0.00 50 1015.6
20260508150328 57 154 0.0 4.0 0.00 0.00 0.00 49 1015.3
20260508145824 56 90 1.0 4.0 0.00 0.00 0.00 49 1015.3
20260508145321 55 332 0.0 3.0 0.00 0.00 0.00 49 1015.3
20260508144817 56 0 1.0 3.0 0.00 0.00 0.00 48 1015.3
20260508144315 55 17 0.0 4.0 0.00 0.00 0.00 50 1014.9
20260508143813 55 90 3.0 3.0 0.00 0.00 0.00 54 1015.1
20260508143310 55 98 3.0 5.0 0.00 0.00 0.00 55 1015.0
20260508142806 53 103 3.0 5.0 0.00 0.00 0.00 57 1015.0
20260508142306 52 90 4.0 7.0 0.00 0.00 0.00 58 1015.0
20260508141759 51 105 3.0 7.0 0.00 0.00 0.00 61 1015.1
20260508141257 50 108 5.0 9.0 0.00 0.00 0.00 63 1015.0
20260508140754 49 86 4.0 7.0 0.00 0.00 0.00 64 1014.9
20260508140251 49 90 2.0 5.0 0.00 0.00 0.00 62 1014.8
20260508135747 48 75 1.0 6.0 0.00 0.00 0.00 61 1015.0
20260508135243 47 82 1.0 7.0 0.00 0.00 0.00 64 1014.8
20260508134738 46 93 4.0 7.0 0.00 0.00 0.00 65 1014.8
20260508134236 45 94 5.0 10.0 0.00 0.00 0.00 66 1014.8
20260508133732 44 102 6.0 6.0 0.00 0.00 0.00 69 1014.9
20260508133230 44 23 1.0 4.0 0.00 0.00 0.00 69 1014.5
20260508132728 44 90 2.0 5.0 0.00 0.00 0.00 70 1014.5
20260508132225 44 90 3.0 6.0 0.00 0.00 0.00 70 1014.5
20260508131720 43 115 4.0 6.0 0.00 0.00 0.00 70 1014.3
20260508131217 43 86 6.0 9.0 0.00 0.00 0.00 70 1014.3
20260508130714 42 58 4.0 8.0 0.00 0.00 0.00 72 1014.4
20260508130212 41 101 5.0 7.0 0.00 0.00 0.00 74 1014.1
20260508125706 41 88 4.0 6.0 0.00 0.00 0.00 74 1014.1
20260508125203 39 72 3.0 7.0 0.00 0.00 0.00 77 1013.9
20260508124701 40 82 5.0 8.0 0.00 0.00 0.00 75 1013.9
20260508124158 40 90 6.0 8.0 0.00 0.00 0.00 73 1014.1
20260508123657 39 112 4.0 8.0 0.00 0.00 0.00 76 1013.8
20260508123154 40 101 3.0 4.0 0.00 0.00 0.00 76 1013.9
20260508122644 39 80 8.0 9.0 0.00 0.00 0.00 77 1013.8
20260508122141 39 114 3.0 6.0 0.00 0.00 0.00 76 1013.8
20260508121639 40 56 3.0 9.0 0.00 0.00 0.00 75 1013.8
20260508121137 39 92 4.0 6.0 0.00 0.00 0.00 77 1013.7
20260508120634 39 94 6.0 7.0 0.00 0.00 0.00 76 1013.7
20260508120132 39 99 5.0 7.0 0.00 0.00 0.00 76 1013.6
20260508115630 39 253 0.0 7.0 0.00 0.00 0.00 76 1013.8
20260508115126 39 94 4.0 5.0 0.00 0.00 0.00 76 1013.6
20260508114623 40 115 2.0 5.0 0.00 0.00 0.00 75 1013.6
20260508114119 39 90 3.0 5.0 0.00 0.00 0.00 76 1013.7
20260508113617 39 111 3.0 6.0 0.00 0.00 0.00 76 1013.6
20260508113115 40 83 3.0 6.0 0.00 0.00 0.00 74 1013.7
20260508112611 41 340 1.0 4.0 0.00 0.00 0.00 73 1013.6
20260508112108 40 84 3.0 6.0 0.00 0.00 0.00 74 1013.7
20260508111605 41 103 5.0 5.0 0.00 0.00 0.00 72 1013.6
20260508111102 41 99 4.0 5.0 0.00 0.00 0.00 72 1013.7
20260508110600 41 102 3.0 6.0 0.00 0.00 0.00 73 1013.8
20260508110055 41 87 3.0 9.0 0.00 0.00 0.00 73 1013.8
20260508105550 41 114 4.0 6.0 0.00 0.00 0.00 72 1013.7
20260508105048 40 94 4.0 6.0 0.00 0.00 0.00 73 1013.7
20260508104546 42 17 2.0 6.0 0.00 0.00 0.00 69 1013.6
20260508104042 43 83 3.0 7.0 0.00 0.00 0.00 68 1013.7
20260508103539 41 92 7.0 10.0 0.00 0.00 0.00 71 1013.6
20260508103037 43 93 9.0 11.0 0.00 0.00 0.00 68 1013.7
20260508102534 41 84 5.0 10.0 0.00 0.00 0.00 72 1013.6
20260508102032 41 90 5.0 9.0 0.00 0.00 0.00 72 1013.6
20260508101529 41 63 5.0 9.0 0.00 0.00 0.00 73 1013.4
20260508101026 41 282 1.0 6.0 0.00 0.00 0.00 72 1013.4
20260508100524 41 69 3.0 9.0 0.00 0.00 0.00 72 1013.7
20260508100021 41 76 5.0 9.0 0.00 0.00 0.00 72 1013.6
20260508095518 41 80 0.0 10.0 0.00 0.00 0.00 73 1013.4
20260508095014 40 71 2.0 7.0 0.00 0.00 0.00 74 1013.6
20260508094512 40 307 2.0 7.0 0.00 0.00 0.00 75 1013.3
20260508094009 40 90 6.0 10.0 0.00 0.00 0.00 74 1013.4
20260508093506 40 86 4.0 15.0 0.00 0.00 0.00 74 1013.6
20260508093004 41 77 3.0 10.0 0.00 0.00 0.00 74 1013.6
20260508092501 40 100 7.0 10.0 0.00 0.00 0.00 74 1013.6
20260508092000 41 99 5.0 11.0 0.00 0.00 0.00 73 1013.6
20260508091456 41 85 3.0 8.0 0.00 0.00 0.00 73 1013.6
20260508090953 41 77 3.0 12.0 0.00 0.00 0.00 73 1013.6
20260508090451 42 96 5.0 5.0 0.00 0.00 0.00 70 1013.7
20260508085947 43 90 2.0 7.0 0.00 0.00 0.00 69 1013.7
20260508085443 42 104 5.0 9.0 0.00 0.00 0.00 71 1013.7
20260508084940 42 86 3.0 9.0 0.00 0.00 0.00 70 1013.6
20260508084437 43 77 5.0 6.0 0.00 0.00 0.00 69 1013.7
20260508083935 43 92 4.0 5.0 0.00 0.00 0.00 69 1013.7
20260508083432 42 101 9.0 9.0 0.00 0.00 0.00 70 1013.7
20260508082932 43 88 5.0 8.0 0.00 0.00 0.00 70 1013.7
20260508082429 42 87 4.0 8.0 0.00 0.00 0.00 71 1013.4
20260508081927 42 94 7.0 11.0 0.00 0.00 0.00 72 1013.6
20260508081424 42 87 7.0 10.0 0.00 0.00 0.00 72 1013.7
20260508080920 42 115 4.0 10.0 0.00 0.00 0.00 72 1013.4
20260508080413 42 113 5.0 9.0 0.00 0.00 0.00 73 1013.7
20260508075908 43 95 6.0 9.0 0.00 0.00 0.00 71 1013.4
20260508075406 43 105 4.0 11.0 0.00 0.00 0.00 70 1013.4
20260508074904 44 103 9.0 9.0 0.00 0.00 0.00 68 1013.4
20260508074400 44 95 0.0 7.0 0.00 0.00 0.00 69 1013.4
20260508073857 44 118 3.0 7.0 0.00 0.00 0.00 68 1013.4
20260508073356 44 57 5.0 9.0 0.00 0.00 0.00 68 1013.4
20260508072852 46 85 2.0 7.0 0.00 0.00 0.00 65 1013.4
20260508072349 46 84 3.0 7.0 0.00 0.00 0.00 66 1013.4
20260508071846 46 48 2.0 9.0 0.00 0.00 0.00 67 1013.4
20260508071344 46 111 3.0 9.0 0.00 0.00 0.00 67 1013.6
20260508070841 45 84 0.0 13.0 0.00 0.00 0.00 68 1013.3
20260508070339 46 25 3.0 8.0 0.00 0.00 0.00 67 1013.6
20260508065837 45 87 4.0 8.0 0.00 0.00 0.00 68 1013.4
20260508065335 46 107 5.0 6.0 0.00 0.00 0.00 67 1013.7
20260508064833 46 90 3.0 7.0 0.00 0.00 0.00 68 1013.6
20260508064330 45 94 5.0 6.0 0.00 0.00 0.00 70 1013.4
20260508063827 45 74 0.0 6.0 0.00 0.00 0.00 71 1013.6
20260508063325 45 85 4.0 9.0 0.00 0.00 0.00 71 1013.6
20260508062822 46 97 6.0 7.0 0.00 0.00 0.00 68 1013.7
20260508062320 46 95 3.0 7.0 0.00 0.00 0.00 70 1013.4
20260508061816 46 128 3.0 4.0 0.00 0.00 0.00 69 1013.7
20260508061313 46 0 2.0 8.0 0.00 0.00 0.00 69 1013.4
20260508060810 47 0 2.0 8.0 0.00 0.00 0.00 67 1013.4
20260508060308 47 78 1.0 5.0 0.00 0.00 0.00 68 1013.4
20260508055802 46 0 3.0 5.0 0.00 0.06 0.06 70 1013.6
20260508055300 47 79 3.0 6.0 0.00 0.06 0.06 69 1013.3
20260508054756 47 95 2.0 5.0 0.00 0.06 0.06 68 1013.6
20260508054254 47 92 5.0 5.0 0.00 0.06 0.06 70 1013.3
20260508053751 47 68 2.0 5.0 0.00 0.06 0.06 70 1013.4
20260508053248 47 97 3.0 6.0 0.00 0.06 0.06 69 1013.3
20260508052745 48 26 2.0 4.0 0.00 0.06 0.06 68 1013.4
20260508052243 48 14 2.0 7.0 0.00 0.06 0.06 68 1013.2
20260508051738 46 119 5.0 7.0 0.00 0.06 0.06 73 1013.2
20260508051234 47 90 6.0 9.0 0.00 0.06 0.06 72 1013.3
20260508050731 47 111 5.0 6.0 0.00 0.06 0.06 71 1013.3
20260508050228 48 103 0.0 6.0 0.00 0.06 0.06 70 1013.3
20260508045723 48 102 5.0 7.0 0.00 0.06 0.06 71 1013.4
20260508045222 48 78 2.0 10.0 0.00 0.06 0.06 69 1013.4
20260508044719 49 65 2.0 5.0 0.00 0.06 0.06 68 1013.2
20260508044215 49 112 3.0 5.0 0.00 0.06 0.06 67 1013.3
20260508043711 49 49 3.0 4.0 0.00 0.06 0.06 67 1013.3
20260508043209 49 112 3.0 6.0 0.00 0.06 0.06 68 1013.4
20260508042705 49 70 3.0 5.0 0.00 0.06 0.06 69 1013.3
20260508042203 48 119 6.0 9.0 0.00 0.06 0.06 71 1013.3
20260508041659 49 66 1.0 4.0 0.00 0.06 0.06 70 1013.2
20260508041156 48 93 4.0 8.0 0.00 0.06 0.06 72 1013.2
20260508040653 48 70 4.0 6.0 0.00 0.06 0.06 73 1013.3
20260508040150 49 86 5.0 8.0 0.00 0.06 0.06 70 1013.1
20260508035647 50 18 2.0 7.0 0.00 0.06 0.06 68 1013.2
20260508035145 49 0 0.0 5.0 0.00 0.06 0.06 72 1013.2
20260508034641 49 104 3.0 5.0 0.00 0.06 0.06 71 1013.2
20260508034138 49 80 5.0 5.0 0.00 0.06 0.06 72 1013.2
20260508033636 48 14 6.0 9.0 0.00 0.06 0.06 73 1013.1
20260508033134 49 88 5.0 7.0 0.00 0.06 0.06 73 1013.1
20260508032630 49 83 4.0 11.0 0.00 0.06 0.06 72 1012.8
20260508032128 49 88 5.0 8.0 0.00 0.06 0.06 72 1013.0
20260508031625 49 106 9.0 9.0 0.00 0.06 0.06 73 1013.0
20260508031121 49 46 5.0 10.0 0.00 0.06 0.06 74 1012.7
20260508030617 49 83 5.0 10.0 0.00 0.06 0.06 74 1013.0
20260508030115 49 90 2.0 5.0 0.00 0.06 0.06 74 1012.6
20260508025611 49 71 3.0 6.0 0.00 0.06 0.06 75 1012.7
20260508025108 48 7 1.0 7.0 0.00 0.06 0.06 75 1012.7
20260508024604 49 87 4.0 7.0 0.00 0.06 0.06 74 1012.6
20260508024101 49 93 3.0 9.0 0.00 0.06 0.06 75 1012.7
20260508023558 50 74 6.0 9.0 0.00 0.06 0.06 73 1012.8
20260508023055 50 74 5.0 8.0 0.00 0.06 0.06 72 1013.0
20260508022551 51 90 4.0 8.0 0.00 0.06 0.06 71 1012.8
20260508022048 51 36 3.0 10.0 0.00 0.06 0.06 72 1012.7
20260508021544 51 23 3.0 8.0 0.00 0.06 0.06 72 1012.7
20260508021040 52 41 4.0 7.0 0.00 0.06 0.06 71 1012.7
20260508020537 53 97 3.0 9.0 0.00 0.06 0.06 67 1012.6
20260508020035 53 70 3.0 8.0 0.00 0.06 0.06 68 1012.6
20260508015532 52 94 2.0 7.0 0.00 0.06 0.06 69 1012.6
20260508015029 53 120 2.0 5.0 0.00 0.06 0.06 69 1012.8
20260508014526 53 90 2.0 9.0 0.00 0.06 0.06 69 1012.7
20260508014022 54 66 3.0 6.0 0.00 0.06 0.06 67 1012.7
20260508013518 53 49 3.0 6.0 0.00 0.06 0.06 66 1012.8
20260508013016 53 12 6.0 10.0 0.00 0.06 0.06 68 1013.0
20260508012513 53 346 3.0 9.0 0.00 0.06 0.06 68 1013.2
20260508012010 54 0 3.0 7.0 0.00 0.06 0.06 62 1013.1
20260508011508 53 65 5.0 6.0 0.00 0.06 0.06 66 1013.1
20260508011005 52 52 2.0 7.0 0.00 0.06 0.06 69 1013.0
20260508010502 52 82 3.0 9.0 0.00 0.06 0.06 72 1012.8
20260508005959 52 42 5.0 10.0 0.00 0.06 0.06 71 1012.8
20260508005456 52 358 0.0 7.0 0.00 0.06 0.06 71 1012.6
20260508004953 52 123 5.0 8.0 0.00 0.06 0.06 70 1012.7
20260508004448 52 49 3.0 8.0 0.00 0.06 0.06 71 1012.8
20260508003945 52 98 10.0 11.0 0.00 0.06 0.06 72 1012.7
20260508003442 52 83 4.0 11.0 0.00 0.06 0.06 73 1012.6
20260508002939 53 54 7.0 12.0 0.00 0.06 0.06 70 1012.7
20260508002436 53 33 2.0 4.0 0.00 0.06 0.06 74 1012.8
20260508001932 53 76 3.0 4.0 0.00 0.06 0.06 71 1012.7
20260508001428 53 116 6.0 9.0 0.00 0.06 0.06 70 1012.6
20260508000925 53 118 6.0 19.0 0.00 0.06 0.06 68 1012.6
20260508000421 53 110 5.0 5.0 0.00 0.06 0.06 72 1013.1
20260507235918 52 12 7.0 7.0 0.02 0.06 0.06 72 1013.6
20260507235415 52 287 4.0 8.0 0.00 0.05 0.05 67 1013.6
20260507234912 53 339 2.0 3.0 0.00 0.05 0.05 66 1013.7
20260507234409 53 12 7.0 7.0 0.00 0.05 0.05 68 1013.4
20260507233905 53 320 0.0 13.0 0.00 0.05 0.05 69 1013.1
20260507233402 51 19 4.0 9.0 0.00 0.05 0.05 75 1013.0
20260507232901 51 51 4.0 7.0 0.00 0.05 0.05 74 1012.8
20260507232357 51 63 2.0 9.0 0.00 0.05 0.05 77 1012.7
20260507231854 51 93 4.0 11.0 0.00 0.05 0.05 79 1012.7
20260507231350 51 96 7.0 14.0 0.00 0.05 0.05 78 1012.6
20260507230847 51 95 6.0 10.0 0.00 0.05 0.05 78 1012.6
20260507230344 51 95 10.0 14.0 0.00 0.05 0.05 79 1012.5
20260507225844 51 90 5.0 7.0 0.00 0.05 0.05 77 1012.6
20260507225340 50 93 11.0 14.0 0.00 0.05 0.05 80 1012.4
20260507224837 51 99 6.0 9.0 0.02 0.05 0.05 78 1012.6
20260507224334 50 55 7.0 10.0 0.05 0.05 0.05 77 1013.1
20260507223829 50 28 10.0 13.0 0.24 0.05 0.05 78 1013.1
20260507223326 50 38 9.0 16.0 0.19 0.04 0.04 74 1012.8
20260507222823 54 72 5.0 25.0 0.00 0.00 0.00 65 1012.8
20260507222320 56 0 18.0 26.0 0.00 0.00 0.00 55 1012.6
20260507221817 56 0 9.0 14.0 0.00 0.00 0.00 55 1012.5
20260507221313 59 323 9.0 20.0 0.00 0.00 0.00 48 1012.4
20260507220809 61 295 6.0 7.0 0.00 0.00 0.00 47 1012.6
20260507220308 60 288 4.0 10.0 0.00 0.00 0.00 48 1012.4
20260507215803 60 241 9.0 15.0 0.00 0.00 0.00 46 1012.6
20260507215301 61 255 1.0 8.0 0.00 0.00 0.00 47 1012.4
20260507214758 61 290 4.0 10.0 0.00 0.00 0.00 47 1012.5
20260507214255 62 233 5.0 13.0 0.00 0.00 0.00 45 1012.5
20260507213750 65 249 9.0 14.0 0.00 0.00 0.00 43 1012.5
20260507213248 62 220 3.0 4.0 0.00 0.00 0.00 46 1012.5
20260507212744 61 330 3.0 8.0 0.00 0.00 0.00 44 1012.6
20260507212240 62 312 7.0 8.0 0.00 0.00 0.00 44 1012.8
20260507211737 62 274 5.0 13.0 0.00 0.00 0.00 42 1012.7
20260507211233 62 229 6.0 15.0 0.00 0.00 0.00 44 1012.8
20260507210730 62 270 2.0 12.0 0.00 0.00 0.00 46 1013.0
20260507210227 64 327 4.0 14.0 0.00 0.00 0.00 43 1012.8
20260507205724 65 248 8.0 12.0 0.00 0.00 0.00 42 1013.0
20260507205221 64 245 6.0 12.0 0.00 0.00 0.00 44 1013.2
20260507204717 63 272 5.0 11.0 0.00 0.00 0.00 46 1013.1
20260507204215 62 266 5.0 8.0 0.00 0.00 0.00 47 1013.1
20260507203712 61 322 6.0 13.0 0.00 0.00 0.00 46 1013.3
20260507203210 64 252 7.0 12.0 0.00 0.00 0.00 43 1013.2
20260507202705 64 255 2.0 14.0 0.00 0.00 0.00 46 1013.3
20260507202202 62 277 5.0 13.0 0.00 0.00 0.00 40 1013.3
20260507201656 60 238 11.0 15.0 0.00 0.00 0.00 45 1013.3
20260507201154 59 279 3.0 11.0 0.00 0.00 0.00 48 1013.4
20260507200650 59 224 7.0 10.0 0.00 0.00 0.00 47 1013.3
20260507200146 59 249 11.0 15.0 0.00 0.00 0.00 48 1013.4
20260507195643 60 213 6.0 16.0 0.00 0.00 0.00 48 1013.2
20260507195140 61 224 7.0 12.0 0.00 0.00 0.00 47 1013.4
20260507194637 63 233 4.0 12.0 0.00 0.00 0.00 47 1013.4
20260507194132 62 222 7.0 8.0 0.00 0.00 0.00 48 1013.4
20260507193629 59 220 3.0 9.0 0.00 0.00 0.00 51 1013.6
20260507193127 60 254 2.0 9.0 0.00 0.00 0.00 51 1013.6
20260507192623 60 284 8.0 13.0 0.00 0.00 0.00 50 1013.6
20260507192120 60 245 6.0 16.0 0.00 0.00 0.00 50 1013.8
20260507191615 61 210 9.0 16.0 0.00 0.00 0.00 49 1013.7
20260507191112 59 232 7.0 13.0 0.00 0.00 0.00 46 1013.7
20260507190609 59 212 9.0 12.0 0.00 0.00 0.00 49 1013.7
20260507190108 60 173 2.0 9.0 0.00 0.00 0.00 48 1013.7
20260507185607 60 232 5.0 7.0 0.00 0.00 0.00 53 1013.9
20260507185102 59 155 4.0 9.0 0.00 0.00 0.00 49 1013.8
20260507184601 59 246 2.0 5.0 0.00 0.00 0.00 54 1013.9
20260507184058 58 232 7.0 11.0 0.00 0.00 0.00 53 1014.1
20260507183554 58 218 5.0 8.0 0.00 0.00 0.00 52 1013.9
20260507183051 59 218 7.0 10.0 0.00 0.00 0.00 52 1013.8
20260507182548 59 175 1.0 10.0 0.00 0.00 0.00 51 1014.1
20260507182043 59 261 3.0 6.0 0.00 0.00 0.00 55 1014.1
20260507181541 58 266 5.0 8.0 0.00 0.00 0.00 53 1014.3
20260507181037 60 225 6.0 11.0 0.00 0.00 0.00 52 1014.1
20260507180533 59 213 6.0 6.0 0.00 0.00 0.00 52 1014.1
20260507180030 59 312 2.0 3.0 0.00 0.00 0.00 51 1014.2